Beaufort, NC

4:03 AM EDT on June 24, 2017 (GMT -0400)
Smith

Weather History for KMRH - December, 2012

Change the Weather History Date:

Monday, December 17, 2012

  Actual Average Record
Temperature  
Mean Temperature 60 °F -  
Max Temperature 63 °F 58 °F 73 °F (2015)
Min Temperature 57 °F 36 °F 18 °F (1988)
Degree Days  
Heating Degree Days 5    
Growing Degree Days 10 (Base 50)    
Moisture  
Dew Point 60 °F    
Average Humidity 95    
Maximum Humidity 100    
Minimum Humidity 86    
Precipitation  
Precipitation 0.40 in - - ()
Sea Level Pressure  
Sea Level Pressure 29.83 in    
Wind  
Wind Speed 8 mph (WSW)    
Max Wind Speed 14 mph    
Max Gust Speed 22 mph    
Visibility 7 miles    
Events Rain    
Averages and records for this station are not official NWS values.
T = Trace of Precipitation, MM = Missing Value Source: NWS Daily Summary

Daily Weather History Graph

Daily Weather History Graph

Search for Another Location

Airport or City:

Trip Planner

Search our weather history database for the weather conditions in past years. The results will help you decide how hot, cold, wet, or windy it might be!

Date:

Astronomy

Dec. 17, 2012 Rise Set
Actual Time 7:08 AM EST 4:58 PM EST
Civil Twilight 6:40 AM EST 5:26 PM EST
Nautical Twilight 6:08 AM EST 5:57 PM EST
Astronomical Twilight 5:37 AM EST 6:28 PM EST
Moon 10:25 AM EST (12/17) 10:06 PM EST (12/17)
Length of Visible Light 10h 46m
Length of Day
9h 49m
Waxing Crescent, 24% of the Moon is Illuminated
Dec 17
Waxing Crescent
Dec 20
First Quarter
Dec 28
Full
Jan 4
Last Quarter
Jan 11
New

Hourly Weather History & Observations

Time (EST) Temp. Dew Point Humidity Pressure Visibility Wind Dir Wind Speed Gust Speed Precip Events Conditions
1:56 AM 62.1 °F 60.1 °F 93% 29.90 in 10.0 mi West 11.5 mph 17.3 mph 0.00 in   Overcast
2:47 AM 62.6 °F 60.8 °F 94% 29.90 in 2.5 mi West 9.2 mph - 0.05 in Rain Heavy Rain
2:56 AM 62.1 °F 61.0 °F 96% 29.90 in 3.0 mi West 11.5 mph - 0.07 in Rain Rain
3:06 AM 62.6 °F 60.8 °F 94% 29.89 in 2.5 mi West 13.8 mph 20.7 mph 0.05 in Rain Heavy Rain
3:16 AM 62.6 °F 62.6 °F 100% 29.89 in 6.0 mi WSW 13.8 mph - 0.06 in Rain Light Rain
3:56 AM 62.1 °F 61.0 °F 96% 29.86 in 10.0 mi WSW 6.9 mph - 0.08 in   Overcast
4:19 AM 62.6 °F 60.8 °F 94% 29.85 in 10.0 mi West 4.6 mph - 0.00 in   Overcast
4:41 AM 62.6 °F 60.8 °F 94% 29.85 in 10.0 mi WSW 4.6 mph - 0.00 in   Overcast
4:56 AM 62.1 °F 61.0 °F 96% 29.85 in 10.0 mi WSW 5.8 mph - 0.00 in   Overcast
5:11 AM 62.6 °F 60.8 °F 94% 29.84 in 10.0 mi SW 6.9 mph - N/A   Overcast
5:18 AM 62.6 °F 60.8 °F 94% 29.84 in 10.0 mi SW 6.9 mph - N/A   Mostly Cloudy
5:29 AM 62.6 °F 60.8 °F 94% 29.84 in 10.0 mi SW 8.1 mph - N/A   Mostly Cloudy
5:49 AM 62.6 °F 60.8 °F 94% 29.83 in 10.0 mi SW 5.8 mph - N/A   Overcast
5:56 AM 61.0 °F 61.0 °F 100% 29.84 in 10.0 mi SW 5.8 mph - N/A   Overcast
6:14 AM 60.8 °F 60.8 °F 100% 29.84 in 4.0 mi SSW 5.8 mph - N/A   Overcast
6:19 AM 60.8 °F 60.8 °F 100% 29.84 in 1.5 mi South 4.6 mph - N/A   Overcast
6:22 AM 60.8 °F 60.8 °F 100% 29.84 in 0.8 mi SSW 5.8 mph - N/A   Overcast
6:49 AM 62.6 °F 60.8 °F 94% 29.84 in 1.2 mi SW 8.1 mph - N/A   Overcast
6:54 AM 60.8 °F 60.8 °F 100% 29.84 in 3.0 mi SW 8.1 mph - N/A   Overcast
6:56 AM 61.0 °F 61.0 °F 100% 29.84 in 4.0 mi SW 6.9 mph - N/A   Overcast
7:20 AM 60.8 °F 60.8 °F 100% 29.84 in 8.0 mi SSW 8.1 mph - 0.00 in Rain Light Rain
7:56 AM 62.1 °F 61.0 °F 96% 29.83 in 5.0 mi SW 8.1 mph - 0.02 in Rain Light Rain
8:20 AM 62.6 °F 60.8 °F 94% 29.83 in 7.0 mi SW 5.8 mph - 0.00 in   Overcast
8:29 AM 60.8 °F 60.8 °F 100% 29.83 in 6.0 mi SW 6.9 mph - 0.00 in   Overcast
8:43 AM 62.6 °F 60.8 °F 94% 29.83 in 7.0 mi SW 8.1 mph - 0.00 in Rain Light Rain
8:56 AM 62.1 °F 61.0 °F 96% 29.83 in 7.0 mi SSW 6.9 mph - 0.00 in   Overcast
9:23 AM 62.6 °F 62.6 °F 100% 29.83 in 7.0 mi SW 5.8 mph - N/A   Overcast
9:30 AM 62.6 °F 62.6 °F 100% 29.83 in 7.0 mi SW 6.9 mph - N/A   Overcast
9:56 AM 62.1 °F 61.0 °F 96% 29.83 in 7.0 mi SSW 10.4 mph - N/A   Mostly Cloudy
10:56 AM 62.1 °F 61.0 °F 96% 29.85 in 9.0 mi West 5.8 mph - N/A   Overcast
11:28 AM 62.6 °F 60.8 °F 94% 29.84 in 9.0 mi SW 10.4 mph - N/A   Overcast
11:40 AM 62.6 °F 60.8 °F 94% 29.84 in 7.0 mi WSW 10.4 mph - N/A   Overcast
11:56 AM 63.0 °F 61.0 °F 93% 29.82 in 8.0 mi WSW 8.1 mph - N/A   Overcast
12:09 PM 62.6 °F 60.8 °F 94% 29.81 in 8.0 mi West 8.1 mph - N/A   Overcast
12:56 PM 61.0 °F 59.0 °F 93% 29.81 in 10.0 mi NW 5.8 mph - N/A   Overcast
1:56 PM 62.1 °F 59.0 °F 90% 29.80 in 9.0 mi NW 6.9 mph - N/A   Overcast
2:31 PM 62.6 °F 59.0 °F 88% 29.79 in 10.0 mi WNW 4.6 mph - N/A   Scattered Clouds
2:56 PM 61.0 °F 59.0 °F 93% 29.79 in 9.0 mi WNW 3.5 mph - N/A   Scattered Clouds
3:04 PM 60.8 °F 59.0 °F 94% 29.79 in 9.0 mi WNW 4.6 mph - N/A   Mostly Cloudy
3:17 PM 60.8 °F 59.0 °F 94% 29.79 in 9.0 mi WNW 3.5 mph - N/A   Scattered Clouds
3:56 PM 61.0 °F 57.9 °F 90% 29.81 in 10.0 mi West 5.8 mph - 0.00 in Rain Light Rain
4:56 PM 60.1 °F 57.9 °F 93% 29.80 in 10.0 mi WSW 3.5 mph - 0.00 in   Overcast
7:56 PM 59.0 °F 57.9 °F 96% 29.81 in 4.0 mi WSW 4.6 mph - 0.05 in Rain Rain
8:30 PM 59.0 °F 57.2 °F 94% 29.82 in 5.0 mi WSW 4.6 mph - 0.04 in Rain Light Rain
8:42 PM 59.0 °F 57.2 °F 94% 29.81 in 4.0 mi WSW 4.6 mph - 0.06 in Rain Rain
8:49 PM 59.0 °F 57.2 °F 94% 29.81 in 3.0 mi West 3.5 mph - 0.07 in Rain Rain
8:56 PM 59.0 °F 57.9 °F 96% 29.82 in 4.0 mi SW 4.6 mph - 0.07 in Rain Light Rain
9:56 PM 62.1 °F 57.9 °F 86% 29.80 in 6.0 mi SSW 5.8 mph - 0.08 in Rain Light Rain
10:56 PM 57.9 °F 57.0 °F 97% 29.73 in 10.0 mi SSE 11.5 mph - 0.03 in Rain Light Rain
11:56 PM 59.0 °F 57.0 °F 93% 29.67 in 10.0 mi SSE 12.7 mph 21.9 mph 0.00 in   Mostly Cloudy